GSAT0218 (GALILEO 22)

Last updated on Thu Nov 21 2024 00:02:30 GMT+0000 (Coordinated Universal Time)

1 43058U 17079D 24324.31045254 -.00000013 00000+0 00000+0 0 9996 2 43058 55.2742 237.3251 0003849 291.5038 68.5024 1.70473741 43211
UTC large
Height (km)
Speed (km/s)
/
Latitude / Longitude
Inclination (degrees)
Orbital Period (minutes)
Azimuth
Elevation
Range (km)
Doppler Factor

Next 0 passes for location: London (51.5072 / 0.1276)

Sorry there are no passes over London.